This demonstration page uses our WeatherBlox Daily Observations layout. Learn more.

Left ArrowRight Arrow

38.88101, -77.10428

Hourly Observations for May 1, 2022

Temp ( °F °C ) Dew Point ( °F °C ) Humidity (%) Winds ( mph kmh ) Pressure ( in mb ) Visibility ( mi km ) Precip ( " mm )
12:52 am 00:52 Cloudy 56 13.3 39 3.9 53 53 SSW 6 9 30.12 1020 8 13 0.00 0.00
1:52 am 01:52 Cloudy 56 13.3 41 5 57 57 SSW 6 9 30.11 1020 7 11 0.00 0.00
2:52 am 02:52 Cloudy 56 13.3 42 5.6 60 60 S 5 7 30.09 1019 10 16 0.00 0.00
3:52 am 03:52 Cloudy 55 12.8 42 5.6 62 62 SSE 5 7 30.09 1019 10 16 0.00 0.00
4:52 am 04:52 Mostly Cloudy 54 12.2 44 6.7 69 69 SSW 8 13 30.09 1019 10 16 0.00 0.00
5:52 am 05:52 Mostly Cloudy 54 12.2 45 7.2 72 72 SSW 6 9 30.10 1019 10 16 0.00 0.00
6:52 am 06:52 Mostly Cloudy 55 12.8 47 8.3 74 74 S 6 9 30.11 1020 10 16 0.00 0.00
7:52 am 07:52 Cloudy 56 13.3 47 8.3 72 72 S 3 6 30.11 1020 10 16 0.00 0.00
8:52 am 08:52 Cloudy 58 14.4 47 8.3 67 67 S 7 11 30.11 1020 10 16 0.00 0.00
9:52 am 09:52 Cloudy 59 15 48 8.9 67 67 S 6 9 30.11 1020 10 16 0.00 0.00
10:52 am 10:52 Cloudy 61 16.1 49 9.4 65 65 S 5 7 30.12 1020 10 16 0.00 0.00
11:52 am 11:52 Cloudy 64 17.8 48 8.9 56 56 SSE 7 11 30.11 1020 10 16 0.00 0.00
12:52 pm 12:52 Cloudy 65 18.3 48 8.9 54 54 SSE 8 13 30.08 1019 10 16 0.00 0.00
1:52 pm 13:52 Cloudy 66 18.9 48 8.9 52 52 Calm 30.09 1019 10 16 0.00 0.00
2:21 pm 14:21 Cloudy with Light Rain 66 18.9 47 8.3 50 50 Calm 30.10 1019 10 16 0.00 0.00
2:52 pm 14:52 Cloudy with Rain 61 16.1 54 12.2 78 78 ESE 8 13 30.07 1018 3 5 0.07 1.78
3:52 pm 15:52 Cloudy 61 16.1 54 12.2 78 78 ENE 9 15 30.06 1018 10 16 0.06 1.52
4:52 pm 16:52 Cloudy 59 15 52 11.1 78 78 E 7 11 30.04 1017 10 16 0.00 0.00
5:52 pm 17:52 Cloudy 61 16.1 52 11.1 72 72 E 6 9 30.02 1017 10 16 0.00 0.00
6:52 pm 18:52 Cloudy 61 16.1 50 10 67 67 VRB 3 6 30.02 1017 10 16 0.00 0.00
7:52 pm 19:52 Cloudy 59 15 52 11.1 78 78 NE 8 13 30.03 1017 10 16 0.00 0.00
8:52 pm 20:52 Cloudy 58 14.4 52 11.1 81 81 NE 7 11 30.03 1017 10 16 0.00 0.00
9:52 pm 21:52 Cloudy 57 13.9 51 10.6 81 81 NE 9 15 30.03 1017 10 16 0.00 0.00
10:52 pm 22:52 Cloudy 57 13.9 51 10.6 81 81 NE 5 7 30.02 1017 10 16 0.00 0.00
11:52 pm 23:52 Cloudy 57 13.9 51 10.6 81 81 NE 5 7 30.01 1016 10 16 0.00 0.00

Powered by AerisWeather